Location: Asheville, NC
(35.6000°N, 82.5500°W)
Time: 20:04:33

KAITUO 1B - Pass Details

Date: 09 March 2018
Orbit: 500 x 520 km, 97.5° (Epoch: 17 March)

Event Time Altitude Azimuth Distance (km) Brightness Sun altitude
Rises 06:13:09 0° 23° (NNE) 2,634 ? -8.2°
Reaches altitude 10° 06:15:26 10° 34° (NE) 1,746 ? -7.7°
Maximum altitude 06:18:47 30° 97° (E) 937 ? -7.0°
Drops below altitude 10° 06:22:09 10° 161° (SSE) 1,741 ? -6.3°
Sets 06:24:24 0° 171° (S) 2,625 ? -5.9°
